This demonstration page uses our WeatherBlox Daily Observations layout. Learn more.

Left ArrowRight Arrow

34.02893, -84.19858

Hourly Observations for February 4, 2017

Temp ( °F °C ) Dew Point ( °F °C ) Humidity (%) Winds ( mph kmh ) Pressure ( in mb ) Visibility ( mi km ) Precip ( " mm )
12:53 am 00:53 Clear 33 0.6 9 -12.8 36 36 N 7 11 30.37 1028 10 16 0.00 0.00
1:53 am 01:53 Clear 31 -0.6 10 -12.2 42 42 N 6 9 30.37 1028 10 16 0.00 0.00
2:53 am 02:53 Clear 29 -1.7 10 -12.2 45 45 N 5 7 30.37 1028 10 16 0.00 0.00
3:53 am 03:53 Mostly Clear 29 -1.7 10 -12.2 45 45 N 3 6 30.37 1028 10 16 0.00 0.00
4:53 am 04:53 Clear 28 -2.2 11 -11.7 49 49 Calm 30.38 1029 10 16 0.00 0.00
5:53 am 05:53 Clear 27 -2.8 12 -11.1 53 53 N 5 7 30.40 1030 10 16 0.00 0.00
6:53 am 06:53 Clear 27 -2.8 13 -10.6 55 55 ENE 3 6 30.43 1031 10 16 0.00 0.00
7:53 am 07:53 Sunny 30 -1.1 11 -11.7 45 45 VRB 3 6 30.45 1031 10 16 0.00 0.00
8:53 am 08:53 Sunny 34 1.1 10 -12.2 37 37 E 5 7 30.47 1032 10 16 0.00 0.00
9:53 am 09:53 Sunny 37 2.8 6 -14.4 27 27 ENE 7 11 30.48 1032 10 16 0.00 0.00
10:53 am 10:53 Sunny 39 3.9 5 -15 24 24 E 8 13 30.48 1032 10 16 0.00 0.00
11:53 am 11:53 Sunny 44 6.7 5 -15 20 20 ENE 7 11 30.46 1032 10 16 0.00 0.00
12:53 pm 12:53 Sunny 45 7.2 2 -16.7 16 16 undefined N/A 30.42 1030 10 16 0.00 0.00
1:53 pm 13:53 Sunny 46 7.8 3 -16.1 17 17 VRB 5 7 30.39 1029 10 16 0.00 0.00
2:53 pm 14:53 Sunny 47 8.3 3 -16.1 16 16 VRB 5 7 30.35 1028 10 16 0.00 0.00
3:53 pm 15:53 Sunny 47 8.3 4 -15.6 17 17 VRB 3 6 30.34 1028 10 16 0.00 0.00
4:53 pm 16:53 Sunny 47 8.3 7 -13.9 19 19 VRB 5 7 30.34 1027 10 16 0.00 0.00
5:53 pm 17:53 Sunny 45 7.2 8 -13.3 22 22 ESE 5 7 30.35 1028 10 16 0.00 0.00
6:53 pm 18:53 Clear 42 5.6 9 -12.8 25 25 Calm 30.36 1028 10 16 0.00 0.00
7:53 pm 19:53 Clear 40 4.4 11 -11.7 30 30 ESE 5 7 30.35 1028 10 16 0.00 0.00
8:53 pm 20:53 Clear 40 4.4 10 -12.2 29 29 Calm 30.34 1027 10 16 0.00 0.00
9:53 pm 21:53 Clear 39 3.9 9 -12.8 29 29 E 5 7 30.34 1027 10 16 0.00 0.00
10:53 pm 22:53 Clear 37 2.8 11 -11.7 34 34 Calm 30.34 1027 10 16 0.00 0.00
11:53 pm 23:53 Clear 38 3.3 11 -11.7 33 33 VRB 3 6 30.31 1026 10 16 0.00 0.00

Powered by AerisWeather